Location: Chippewa Lake
(41.0698°N, 81.9010°W)
Time: 02:02:30
(UTC+00:00)

Milstar 3 - Pass Details

Date: 09 May 2021
Orbit: 1089 x 5155 km, 28.3° (Epoch: 08 May)

Event Time Altitude Azimuth Distance (km) Brightness Sun altitude
Rises 03:22:06 0° 247° (WSW) 6,583 6.9 -25.1°
Reaches altitude 10° 03:27:32 10° 240° (WSW) 4,916 6.1 -25.6°
Enters shadow 03:37:04 35° 192° (SSW) 2,374 4.1 -26.5°
